• In Uzbekistan
  • List of Countries
  • For 7 days
  • Water Temperature
  • Satellite Maps
  • Weather Map
  • Weather Widgets
  • user-avatar
    Login

    Hourly Weather Shaki

    Today, 26 July, Wednesday

    Time Temperature Precipitation Wind Pressure Humidity
    00:00 +27°C° 0 mm 2 mps 730 mmHg 35%
    01:00 +26°C° 0 mm 2 mps 730 mmHg 36%
    02:00 +26°C° 0 mm 2 mps 730 mmHg 38%
    03:00 +25°C° 0 mm 2 mps 730 mmHg 39%
    04:00 +26°C° 0 mm 1 mps 730 mmHg 39%
    05:00 +27°C° 0 mm 1 mps 730 mmHg 40%
    06:00 +27°C° 0 mm 1 mps 731 mmHg 40%
    07:00 +29°C° 0 mm 2 mps 731 mmHg 36%
    08:00 +30°C° 0 mm 2 mps 731 mmHg 33%
    09:00 +32°C° 0 mm 2 mps 730 mmHg 29%
    10:00 +34°C° 0 mm 2 mps 730 mmHg 28%
    11:00 +35°C° 0 mm 2 mps 730 mmHg 28%
    12:00 +36°C° 0 mm 2 mps 730 mmHg 27%
    13:00 +36°C° 0 mm 2 mps 730 mmHg 27%
    14:00 +37°C° 0 mm 2 mps 730 mmHg 27%
    15:00 +37°C° 0 mm 2 mps 730 mmHg 27%
    16:00 +37°C° 0.1 mm 2 mps 730 mmHg 29%
    17:00 +36°C° 0.1 mm 2 mps 730 mmHg 31%
    18:00 +35°C° 0.1 mm 2 mps 730 mmHg 32%
    19:00 +34°C° 0.1 mm 2 mps 730 mmHg 35%
    20:00 +31°C° 0.1 mm 3 mps 731 mmHg 38%
    21:00 +29°C° 0.1 mm 3 mps 731 mmHg 40%
    22:00 +28°C° 0 mm 3 mps 731 mmHg 42%
    23:00 +28°C° 0 mm 3 mps 732 mmHg 45%

    Tomorrow, 27 July, Thursday

    Time Temperature Precipitation Wind Pressure Humidity
    00:00 +27°C° 0 mm 3 mps 732 mmHg 47%
    01:00 +27°C° 0 mm 2 mps 732 mmHg 47%
    02:00 +27°C° 0 mm 2 mps 732 mmHg 48%
    03:00 +26°C° 0 mm 2 mps 732 mmHg 48%
    04:00 +27°C° 0 mm 1 mps 732 mmHg 48%
    05:00 +27°C° 0 mm 1 mps 732 mmHg 47%
    06:00 +28°C° 0 mm 1 mps 733 mmHg 47%
    07:00 +29°C° 0 mm 1 mps 733 mmHg 43%
    08:00 +31°C° 0 mm 1 mps 733 mmHg 39%
    09:00 +32°C° 0 mm 1 mps 733 mmHg 36%
    10:00 +34°C° 0 mm 2 mps 733 mmHg 34%
    11:00 +36°C° 0 mm 2 mps 732 mmHg 32%
    12:00 +37°C° 0 mm 2 mps 732 mmHg 30%
    13:00 +37°C° 0 mm 2 mps 732 mmHg 29%
    14:00 +38°C° 0 mm 2 mps 732 mmHg 28%
    15:00 +38°C° 0 mm 3 mps 731 mmHg 27%
    16:00 +38°C° 0 mm 3 mps 731 mmHg 28%
    17:00 +37°C° 0 mm 3 mps 731 mmHg 29%
    18:00 +37°C° 0 mm 3 mps 731 mmHg 31%
    19:00 +35°C° 0 mm 3 mps 732 mmHg 33%
    20:00 +33°C° 0 mm 3 mps 732 mmHg 35%
    21:00 +30°C° 0 mm 3 mps 733 mmHg 38%
    22:00 +30°C° 0 mm 3 mps 733 mmHg 39%
    23:00 +29°C° 0 mm 3 mps 733 mmHg 40%

    Day after tomorrow, 28 July, Friday

    Time Temperature Precipitation Wind Pressure Humidity
    00:00 +28°C° 0 mm 3 mps 733 mmHg 42%
    01:00 +28°C° 0 mm 3 mps 733 mmHg 42%
    02:00 +28°C° 0 mm 2 mps 733 mmHg 43%
    03:00 +27°C° 0 mm 2 mps 733 mmHg 44%
    04:00 +28°C° 0 mm 2 mps 733 mmHg 43%
    05:00 +28°C° 0 mm 2 mps 733 mmHg 42%
    06:00 +29°C° 0 mm 1 mps 733 mmHg 41%
    07:00 +31°C° 0 mm 1 mps 732 mmHg 37%
    08:00 +33°C° 0 mm 1 mps 732 mmHg 33%
    09:00 +35°C° 0 mm 2 mps 732 mmHg 29%
    10:00 +37°C° 0 mm 2 mps 732 mmHg 27%
    11:00 +38°C° 0 mm 2 mps 731 mmHg 26%
    12:00 +39°C° 0 mm 2 mps 731 mmHg 24%
    13:00 +40°C° 0 mm 2 mps 731 mmHg 23%
    14:00 +40°C° 0 mm 2 mps 730 mmHg 22%
    15:00 +41°C° 0 mm 2 mps 730 mmHg 21%
    16:00 +40°C° 0 mm 2 mps 730 mmHg 22%
    17:00 +39°C° 0 mm 1 mps 730 mmHg 23%
    18:00 +39°C° 0 mm 1 mps 730 mmHg 24%
    19:00 +37°C° 0 mm 2 mps 730 mmHg 26%
    20:00 +35°C° 0 mm 2 mps 730 mmHg 27%
    21:00 +33°C° 0 mm 3 mps 731 mmHg 28%
    22:00 +31°C° 0 mm 3 mps 731 mmHg 28%
    23:00 +31°C° 0 mm 2 mps 731 mmHg 28%

    29 July, Saturday

    Time Temperature Precipitation Wind Pressure Humidity
    00:00 +30°C° 0 mm 2 mps 731 mmHg 29%
    01:00 +30°C° 0 mm 2 mps 731 mmHg 29%
    02:00 +29°C° 0 mm 2 mps 731 mmHg 29%
    03:00 +29°C° 0 mm 1 mps 731 mmHg 29%
    04:00 +29°C° 0 mm 2 mps 731 mmHg 29%
    05:00 +30°C° 0 mm 2 mps 731 mmHg 29%
    06:00 +31°C° 0 mm 2 mps 731 mmHg 29%
    07:00 +34°C° 0 mm 2 mps 731 mmHg 25%
    08:00 +36°C° 0 mm 3 mps 731 mmHg 22%
    09:00 +38°C° 0 mm 3 mps 731 mmHg 19%
    10:00 +39°C° 0 mm 3 mps 731 mmHg 17%
    11:00 +42°C° 0 mm 3 mps 731 mmHg 16%
    12:00 +43°C° 0 mm 3 mps 730 mmHg 15%
    13:00 +43°C° 0 mm 3 mps 730 mmHg 15%
    14:00 +42°C° 0 mm 2 mps 730 mmHg 14%
    15:00 +43°C° 0 mm 2 mps 730 mmHg 14%
    16:00 +42°C° 0 mm 2 mps 730 mmHg 15%
    17:00 +41°C° 0 mm 1 mps 730 mmHg 17%
    18:00 +40°C° 0 mm 1 mps 731 mmHg 18%
    19:00 +38°C° 0 mm 2 mps 731 mmHg 22%
    20:00 +36°C° 0 mm 2 mps 732 mmHg 25%
    21:00 +34°C° 0 mm 3 mps 733 mmHg 28%
    22:00 +33°C° 0 mm 3 mps 733 mmHg 32%
    23:00 +31°C° 0 mm 3 mps 733 mmHg 37%

    30 July, Sunday

    Time Temperature Precipitation Wind Pressure Humidity
    00:00 +30°C° 0 mm 3 mps 734 mmHg 41%
    01:00 +30°C° 0 mm 3 mps 734 mmHg 42%
    02:00 +29°C° 0 mm 3 mps 734 mmHg 44%
    03:00 +29°C° 0 mm 3 mps 734 mmHg 45%
    04:00 +29°C° 0 mm 3 mps 735 mmHg 45%
    05:00 +29°C° 0 mm 3 mps 735 mmHg 46%
    06:00 +30°C° 0 mm 3 mps 735 mmHg 47%
    07:00 +31°C° 0 mm 3 mps 735 mmHg 41%
    08:00 +34°C° 0 mm 3 mps 736 mmHg 36%
    09:00 +36°C° 0 mm 3 mps 736 mmHg 31%
    10:00 +37°C° 0 mm 3 mps 736 mmHg 30%
    11:00 +38°C° 0 mm 3 mps 735 mmHg 29%
    12:00 +39°C° 0 mm 2 mps 735 mmHg 28%
    13:00 +39°C° 0.1 mm 2 mps 735 mmHg 27%
    14:00 +39°C° 0.1 mm 2 mps 735 mmHg 26%
    15:00 +40°C° 0.1 mm 3 mps 735 mmHg 26%
    16:00 +39°C° 0 mm 3 mps 735 mmHg 27%
    17:00 +39°C° 0 mm 3 mps 735 mmHg 28%
    18:00 +38°C° 0 mm 3 mps 735 mmHg 28%
    19:00 +36°C° 0 mm 4 mps 735 mmHg 35%
    20:00 +34°C° 0 mm 4 mps 736 mmHg 41%
    21:00 +32°C° 0 mm 5 mps 736 mmHg 47%
    22:00 +30°C° 0 mm 4 mps 737 mmHg 51%
    23:00 +29°C° 0 mm 4 mps 737 mmHg 55%

    31 July, Monday

    Time Temperature Precipitation Wind Pressure Humidity
    00:00 +28°C° 0 mm 4 mps 737 mmHg 59%
    01:00 +28°C° 0 mm 3 mps 737 mmHg 59%
    02:00 +28°C° 0 mm 3 mps 737 mmHg 60%
    03:00 +27°C° 0 mm 2 mps 737 mmHg 60%
    04:00 +28°C° 0 mm 2 mps 737 mmHg 59%
    05:00 +28°C° 0 mm 2 mps 738 mmHg 58%
    06:00 +29°C° 0 mm 2 mps 738 mmHg 57%
    07:00 +30°C° 0 mm 2 mps 738 mmHg 52%
    08:00 +31°C° 0 mm 2 mps 738 mmHg 48%
    09:00 +34°C° 0 mm 3 mps 738 mmHg 43%
    10:00 +35°C° 0 mm 3 mps 738 mmHg 40%
    11:00 +36°C° 0 mm 3 mps 738 mmHg 37%
    12:00 +37°C° 0 mm 4 mps 737 mmHg 34%
    13:00 +37°C° 0 mm 4 mps 737 mmHg 33%
    14:00 +38°C° 0 mm 4 mps 737 mmHg 32%
    15:00 +38°C° 0 mm 4 mps 737 mmHg 31%
    16:00 +38°C° 0 mm 4 mps 737 mmHg 32%
    17:00 +37°C° 0 mm 4 mps 737 mmHg 33%
    18:00 +36°C° 0 mm 4 mps 737 mmHg 35%
    19:00 +34°C° 0 mm 5 mps 737 mmHg 39%
    20:00 +32°C° 0 mm 5 mps 738 mmHg 44%
    21:00 +29°C° 0 mm 5 mps 738 mmHg 49%
    22:00 +28°C° 0 mm 4 mps 738 mmHg 51%
    23:00 +28°C° 0 mm 4 mps 738 mmHg 53%
    Show more